Voltar ao catálogo

CZ-4B DEB

AtivoSSO
NORAD 25733·DEBRIS·🇨🇳 China

Lançado May 10, 1999 de Taiyuan Satellite Launch Center

Loading…

Próximas Passagens (próximas 24 horas)

TLE

AtualizadoSource: Space-Track

Época: Sep 14, 2026, 13:12 UTC

1 25733U 99025D   26257.55057257  .00000245  00000-0  13787-3 0  9993
2 25733  98.6746 299.1747 0013126 282.4797  77.4911 14.18999760412698

Acompanhe CZ-4B DEB em tempo real com AllMySat

Download on the App Store